Simultaneous Nadir Overpasses (SNOs) Predictions

Prediction of SNOs between LANDSAT-8 and METOP-B Satellite Orbit:

Table of predicted SNOs for the next 14.0 days since TLE Epoch: 6/19/2015
Index Date (LANDSAT-8) Time (LANDSAT-8) Lat,Lon (LANDSAT-8) SZA (LANDSAT-8 ) Date (METOP-B) Time (METOP-B) Lat,Lon (METOP-B) SZA (METOP-B ) Distance(km) Time Diff (sec)
1 06/21/2015 18:56:44 81.12, -64.33 59.80 06/21/2015 18:56:29 81.12, -64.16 59.82 3.11 15
2 06/21/2015 19:46:10 -81.14, 103.62 120.15 06/21/2015 19:47:08 -81.14, 103.78 120.11 2.91 58
3 06/24/2015 14:30:59 81.13, 2.35 59.85 06/24/2015 14:30:51 81.13, 2.54 59.87 3.16 8
4 06/24/2015 15:20:25 -81.15, 170.33 120.10 06/24/2015 15:21:30 -81.15, 170.50 120.05 2.92 65
5 06/27/2015 09:15:59 -80.84,-102.97 120.72 06/27/2015 09:14:45 -80.93,-103.24 120.71 11.52 74
6 06/27/2015 10:05:14 81.12, 68.58 59.89 06/27/2015 10:05:14 81.12, 68.43 59.87 2.65 0
7 06/27/2015 10:54:40 -81.14,-123.41 120.06 06/27/2015 10:55:53 -81.14,-123.58 120.05 2.82 73
8 06/30/2015 04:50:04 -81.10, -32.92 120.04 06/30/2015 04:48:57 -81.10, -32.95 120.07 0.62 67
9 06/30/2015 05:39:29 81.12, 135.10 60.02 06/30/2015 05:39:36 81.12, 135.03 60.02 1.04 7
10 07/03/2015 00:24:19 -81.10, 33.53 119.86 07/03/2015 00:23:19 -81.11, 33.64 119.87 1.98 60




NCC Satellite Simultaneous Nadir Overpasses (SNOs) Prediction Service
